Location: Hains Lake
(37.8540°N, 99.8578°W)
Time: 21:59:18
(UTC+00:00)

deb Explorer IX - Pass Details

Date: 24 April 2021
Orbit: 541 x 1098 km, 38.8° (Epoch: 13 May)

Event Time Altitude Azimuth Distance (km) Brightness Sun altitude
Rises 12:48:51 0° 259° (WSW) 2,684 ? 10.2°
Reaches altitude 10° 12:51:02 10° 259° (W) 1,799 ? 10.6°
Maximum altitude 12:55:07 90° 216° (SW) 565 ? 11.4°
Drops below altitude 10° 12:59:31 10° 80° (E) 1,941 ? 12.2°
Sets 13:01:58 0° 81° (E) 2,917 ? 12.7°
